Location: Newark
(32.9900°N, 111.5400°W)
Time: 22:17:55
(UTC+00:00)

Envisat - Pass Details

Date: 21 November 2019
Orbit: 764 x 766 km, 98.1° (Epoch: 13 December)

Event Time Altitude Azimuth Distance (km) Brightness Sun altitude
Rises 13:09:49 0° 32° (NNE) 3,233 6.4 -11.1°
Reaches altitude 10° 13:12:47 10° 50° (NE) 2,302 5.9 -10.5°
Maximum altitude 13:16:20 19° 94° (E) 1,755 6.1 -9.8°
Drops below altitude 10° 13:19:52 10° 139° (SE) 2,292 6.5 -9.1°
Sets 13:22:48 0° 157° (SSE) 3,213 6.9 -8.5°
